Dewpoint
70 70 68 65 52 36 38 41 43 39 47 55 56 55 57 58 57 57 64 68 68 70 72 74 75 74 75 76 76 77 77 77 77 77 77 77 77 77 76 76 76 76 76 76 75 74 73 74 74
67 68 66 59 39 31 38 43 46 48 49 52 54 54 55 58 62 63 66 69 69 71 73 74 75 75 75 76 77 77 77 77 77 77 77 77 77 77 76 76 75 76 75 75 74 73 74 75 75
68 66 59 48 36 36 37 45 49 50 50 49 54 58 58 60 62 64 67 69 70 70 72 74 75 75 74 75 77 77 77 77 76 78 77 77 77 76 75 76 75 75 74 73 73 74 73 74 74
66 63 56 39 35 43 44 46 47 47 49 52 54 56 61 64 63 65 67 68 70 70 73 75 74 74 74 76 77 77 77 77 77 77 77 77 76 75 74 74 75 75 74 73 74 74 74 74 74
60 54 41 37 37 43 47 48 49 46 50 52 53 57 61 65 65 67 67 68 69 71 73 74 75 75 75 76 77 77 78 77 77 77 77 76 76 76 75 74 73 74 75 74 73 74 74 73 72
56 55 39 34 38 43 46 48 47 45 49 54 56 58 63 65 65 66 67 67 68 71 72 73 73 74 74 75 76 77 77 76 76 76 76 76 76 75 75 75 74 73 74 74 74 74 73 73 72
49 47 45 39 38 40 45 47 47 48 45 49 54 58 63 63 65 67 67 67 67 71 72 74 73 73 73 73 75 76 76 76 77 76 75 75 75 75 75 75 75 74 73 73 74 73 73 73 72
50 46 36 36 36 40 47 47 49 48 50 55 55 54 60 63 65 65 66 67 69 69 70 72 72 72 74 74 74 76 76 76 74 74 74 74 75 75 74 75 75 74 74 73 72 73 73 72 72
52 37 34 36 35 39 47 46 51 52 54 56 54 55 60 62 63 63 64 66 69 68 67 70 68 70 74 75 75 76 76 75 74 73 73 73 68 70 71 74 73 74 73 73 73 72 72 72 72
37 29 30 33 36 38 43 45 49 50 54 54 57 59 61 61 62 62 63 63 65 65 66 64 65 70 67 71 76 77 72 67 71 70 71 68 70 72 70 72 73 73 73 73 74 73 73 71 64
36 27 31 29 29 38 42 46 48 47 47 52 56 59 59 60 61 61 62 62 63 64 63 66 66 67 65 66 74 74 75 74 71 73 72 71 72 72 70 69 69 70 73 68 69 73 67 63 63
30 29 28 27 28 33 42 47 47 50 50 54 56 58 58 58 58 59 61 63 64 64 64 65 67 68 69 68 69 74 74 71 69 71 74 74 71 72 72 70 70 72 70 72 71 66 68 67 65
28 28 27 25 23 32 45 45 48 52 54 54 56 57 57 56 57 58 60 62 64 65 66 67 70 71 72 73 70 70 70 71 71 73 74 73 71 72 71 72 71 72 71 70 72 70 69 68 67
27 26 26 26 26 38 39 46 48 54 56 54 55 56 56 56 57 58 59 60 63 65 67 68 70 72 72 72 73 72 72 72 71 70 72 74 72 73 71 71 70 73 76 75 73 71 70 70 67
26 25 25 27 26 35 39 43 44 55 56 54 53 54 55 57 58 59 59 61 62 65 67 68 70 72 73 74 73 73 70 69 68 68 73 74 76 75 75 72 71 70 75 75 73 73 71 70 69
24 26 20 23 24 35 36 34 50 55 54 53 52 54 56 57 58 59 61 62 63 64 67 69 67 69 72 73 72 70 69 70 69 69 69 72 74 74 73 71 71 72 73 72 72 72 71 70 69
23 18 20 21 22 27 27 33 50 53 53 54 55 55 56 58 60 62 62 62 63 66 68 70 70 69 71 73 72 72 73 71 68 68 68 71 73 73 73 71 72 75 72 72 71 71 72 70 70
19 19 19 20 21 21 20 36 49 51 52 52 55 56 56 57 59 62 64 64 65 66 68 70 70 72 73 72 73 70 69 70 69 69 68 70 71 73 73 71 73 76 72 72 72 72 72 71 69
24 21 21 22 22 21 20 32 45 50 51 52 53 56 56 57 58 60 62 64 65 67 69 70 71 73 72 70 68 67 66 67 68 69 72 73 73 73 74 71 72 72 72 75 75 74 73 70 71
25 22 22 22 22 23 23 27 40 48 49 51 52 54 55 56 58 60 62 63 64 66 69 70 71 73 73 69 70 68 67 67 68 70 72 73 74 74 74 75 73 72 70 72 75 76 73 69 75
23 21 23 20 25 25 24 30 39 45 48 49 51 53 53 55 57 60 62 63 63 65 68 70 72 72 73 72 70 71 71 71 69 70 70 72 74 75 76 75 77 75 76 69 73 76 73 69 76
21 22 20 20 22 18 27 19 31 34 43 47 49 52 53 54 56 59 61 63 64 64 67 70 73 74 73 74 73 74 70 70 67 71 71 73 74 74 74 74 75 76 72 74 72 74 77 76 68
23 23 22 22 20 22 22 17 27 33 34 37 43 49 51 54 55 56 59 61 62 63 65 69 73 75 75 75 75 72 73 70 70 72 74 75 76 75 75 74 75 77 76 76 74 74 74 71 72
26 25 25 24 20 20 23 20 21 25 30 30 36 44 50 52 55 56 58 61 62 62 63 66 72 75 75 75 75 76 75 74 72 71 71 69 67 68 73 74 76 77 76 75 76 77 76 74 74
25 23 21 20 18 19 29 23 25 32 36 40 39 40 48 52 54 56 58 60 63 63 64 66 71 74 74 74 74 75 76 76 76 75 69 70 64 61 70 74 75 73 74 74 77 76 75 76 75
23 22 20 23 19 23 31 25 31 39 42 45 46 42 46 50 53 55 55 59 62 63 66 67 70 73 74 74 75 76 77 73 71 72 71 70 67 64 72 71 73 71 72 72 75 73 75 75 74
25 24 23 21 23 16 21 25 27 40 43 47 47 46 47 51 52 55 57 54 59 64 67 67 70 74 74 73 74 76 76 76 73 75 75 65 68 63 65 69 70 70 71 72 73 70 71 72 74
26 25 22 21 23 21 22 24 23 32 38 48 51 51 53 54 54 57 58 61 62 65 67 68 71 73 73 73 73 73 74 74 72 71 68 66 65 66 66 66 66 67 68 68 71 67 68 71 68
25 23 25 22 23 20 20 21 30 33 36 44 50 53 54 57 56 59 58 62 67 66 68 69 70 72 73 72 70 71 69 67 65 63 63 64 65 66 66 67 68 66 66 67 69 70 68 68 70
24 25 26 22 34 26 23 24 26 34 37 42 47 54 57 58 59 61 59 64 66 67 68 68 69 70 69 69 69 66 64 61 59 61 62 63 64 63 63 64 66 66 66 68 67 66 65 65 66
Lifted_Index
-4 -4 -4 -3 -2 0 1 1 1 2 1 -0 -1 -1 -1 -1 -1 -1 -1 -2 -2 -3 -3 -3 -3 -3 -3 -4 -4 -5 -6 -6 -5 -5 -5 -5 -5 -5 -4 -4 -4 -5 -5 -4 -4 -3 -3 -3 -3
-4 -4 -4 -3 -1 0 1 0 0 1 1 0 -0 -1 -1 -1 -1 -1 -2 -2 -2 -3 -3 -3 -3 -3 -3 -4 -5 -5 -6 -6 -6 -6 -6 -6 -6 -5 -4 -4 -4 -4 -4 -4 -3 -3 -3 -3 -3
-4 -4 -3 -2 -1 -0 0 -0 -0 0 0 0 -0 -1 -1 -1 -1 -1 -2 -2 -2 -2 -3 -3 -3 -3 -3 -4 -5 -6 -6 -6 -6 -6 -6 -6 -5 -5 -4 -4 -4 -4 -4 -3 -3 -3 -3 -3 -3
-4 -4 -3 -2 -1 -1 -1 -1 -1 -0 0 -0 -1 -1 -2 -2 -1 -2 -2 -2 -2 -2 -3 -3 -3 -3 -3 -4 -5 -6 -6 -6 -6 -6 -6 -6 -5 -5 -4 -4 -4 -4 -4 -3 -3 -4 -4 -3 -4
-3 -3 -3 -2 -2 -2 -2 -2 -1 -1 -1 -1 -1 -2 -2 -2 -2 -2 -2 -2 -2 -2 -2 -2 -3 -3 -3 -4 -5 -6 -6 -6 -6 -6 -6 -5 -5 -5 -5 -4 -4 -4 -4 -4 -4 -4 -4 -4 -3
-3 -2 -2 -2 -2 -2 -2 -2 -2 -1 -1 -1 -1 -2 -2 -2 -2 -2 -2 -2 -2 -2 -2 -2 -2 -3 -3 -4 -4 -5 -6 -6 -6 -6 -6 -5 -5 -5 -5 -4 -4 -4 -4 -4 -4 -4 -4 -4 -3
-2 -2 -2 -2 -2 -2 -2 -2 -2 -1 -1 -1 -2 -2 -2 -2 -2 -2 -2 -2 -2 -2 -2 -2 -2 -2 -2 -3 -4 -5 -5 -5 -6 -5 -5 -5 -5 -5 -5 -5 -4 -4 -4 -4 -4 -4 -4 -4 -4
-1 -1 -1 -1 -2 -2 -2 -2 -3 -2 -2 -2 -2 -2 -2 -2 -2 -2 -2 -2 -2 -2 -2 -3 -2 -2 -3 -3 -4 -5 -5 -5 -5 -5 -5 -5 -5 -5 -4 -4 -5 -5 -4 -4 -4 -4 -4 -4 -3
-1 -0 0 0 -0 -1 -2 -2 -3 -3 -3 -3 -2 -2 -2 -2 -2 -2 -2 -2 -2 -2 -2 -2 -2 -2 -3 -3 -4 -5 -5 -4 -4 -4 -4 -4 -4 -4 -4 -4 -5 -5 -5 -4 -4 -4 -4 -3 -3
0 1 2 2 1 0 -1 -2 -2 -3 -3 -3 -3 -2 -2 -2 -2 -2 -2 -2 -2 -2 -2 -2 -2 -2 -2 -3 -4 -5 -5 -4 -4 -4 -4 -4 -5 -5 -4 -4 -4 -5 -4 -4 -4 -4 -3 -2 -2
1 2 2 2 2 1 -1 -2 -2 -2 -3 -3 -2 -2 -2 -2 -2 -2 -2 -2 -2 -3 -3 -3 -3 -2 -2 -3 -4 -5 -5 -5 -4 -5 -5 -5 -5 -5 -4 -4 -4 -4 -4 -4 -4 -4 -3 -2 -1
2 2 3 3 3 2 -0 -2 -2 -2 -3 -2 -2 -2 -2 -2 -2 -2 -2 -3 -3 -3 -3 -3 -3 -3 -3 -4 -4 -5 -5 -5 -5 -5 -6 -6 -5 -5 -5 -4 -4 -4 -5 -5 -4 -4 -3 -2 -2
2 3 3 3 3 1 -0 -2 -2 -3 -3 -2 -2 -2 -2 -2 -2 -2 -2 -3 -3 -3 -4 -4 -4 -4 -4 -5 -5 -5 -5 -6 -6 -6 -6 -6 -6 -5 -5 -5 -5 -5 -5 -5 -5 -4 -4 -3 -2
2 2 3 3 2 1 -1 -2 -2 -3 -3 -2 -2 -2 -2 -2 -2 -2 -2 -3 -3 -4 -4 -4 -5 -5 -5 -5 -6 -6 -6 -6 -6 -6 -6 -6 -6 -6 -5 -5 -5 -6 -6 -6 -6 -5 -4 -4 -3
2 2 2 2 2 1 -1 -2 -3 -4 -3 -3 -2 -2 -2 -2 -2 -2 -3 -3 -3 -4 -4 -4 -5 -5 -5 -6 -6 -6 -6 -5 -5 -5 -6 -7 -7 -6 -6 -5 -5 -6 -6 -6 -6 -6 -5 -5 -4
2 1 1 1 1 1 -0 -1 -3 -4 -4 -3 -2 -2 -2 -2 -2 -3 -3 -3 -4 -4 -5 -5 -5 -5 -6 -6 -6 -6 -5 -5 -5 -5 -5 -6 -6 -7 -6 -6 -6 -6 -6 -6 -6 -6 -6 -6 -5
1 0 -0 0 1 1 0 -1 -3 -5 -5 -4 -3 -3 -3 -3 -3 -3 -3 -4 -4 -4 -5 -5 -5 -6 -6 -6 -6 -6 -6 -6 -5 -5 -5 -5 -6 -6 -7 -7 -7 -7 -7 -7 -7 -7 -6 -6 -6
0 -0 -1 0 1 1 -0 -1 -3 -4 -5 -5 -4 -4 -4 -3 -3 -4 -4 -4 -4 -4 -5 -5 -6 -6 -6 -7 -6 -6 -6 -6 -6 -6 -6 -6 -6 -7 -7 -7 -7 -7 -7 -7 -7 -7 -7 -7 -6
0 -0 -0 0 1 1 -0 -1 -3 -4 -5 -5 -5 -4 -4 -4 -4 -4 -4 -4 -4 -4 -5 -5 -6 -6 -7 -6 -6 -6 -6 -6 -6 -6 -6 -7 -7 -7 -7 -7 -7 -8 -8 -8 -8 -8 -7 -7 -7
1 -0 -0 0 1 1 0 -0 -2 -3 -4 -4 -5 -5 -4 -4 -4 -4 -4 -4 -4 -4 -5 -5 -6 -6 -6 -6 -5 -5 -5 -6 -6 -7 -7 -7 -7 -7 -7 -8 -8 -8 -8 -8 -8 -8 -7 -7 -7
0 0 0 0 0 0 0 -0 -1 -2 -3 -4 -4 -4 -4 -4 -4 -4 -4 -4 -4 -4 -5 -5 -6 -6 -6 -6 -5 -6 -6 -6 -6 -6 -7 -7 -8 -8 -8 -8 -8 -8 -7 -7 -7 -8 -7 -7 -7
1 1 1 1 0 0 0 -0 -0 -1 -2 -3 -3 -4 -4 -4 -4 -4 -4 -4 -4 -4 -5 -6 -6 -6 -6 -6 -6 -6 -6 -6 -6 -6 -7 -7 -7 -8 -8 -8 -8 -8 -7 -7 -7 -7 -7 -7 -7
2 2 2 2 0 0 0 -0 -0 -0 -0 -1 -2 -3 -4 -4 -4 -4 -4 -4 -4 -4 -5 -5 -6 -7 -7 -7 -7 -7 -7 -7 -6 -6 -7 -7 -7 -7 -7 -7 -8 -8 -7 -7 -7 -7 -7 -7 -7
3 3 2 1 0 -0 0 0 -0 0 0 -0 -1 -2 -4 -4 -5 -4 -4 -4 -5 -5 -5 -5 -6 -7 -7 -7 -7 -7 -7 -7 -7 -7 -6 -6 -5 -5 -6 -7 -7 -8 -7 -7 -7 -7 -7 -7 -7
3 2 1 0 -0 -0 1 1 0 0 0 -0 -1 -2 -3 -4 -5 -5 -4 -5 -5 -5 -5 -5 -7 -8 -8 -8 -8 -8 -8 -8 -8 -7 -6 -6 -4 -4 -5 -6 -7 -7 -7 -7 -7 -7 -7 -8 -8
3 1 0 -0 -0 0 1 1 1 1 0 -1 -2 -2 -3 -4 -4 -5 -5 -5 -5 -6 -6 -6 -7 -8 -8 -8 -8 -8 -9 -8 -8 -8 -7 -6 -4 -3 -4 -5 -6 -6 -6 -6 -6 -6 -7 -7 -7
3 2 1 1 0 0 1 1 2 1 -0 -1 -2 -3 -3 -4 -5 -5 -5 -5 -6 -6 -7 -7 -7 -8 -8 -8 -8 -8 -8 -8 -7 -7 -6 -5 -3 -3 -3 -4 -4 -4 -4 -5 -5 -5 -5 -5 -6
3 2 1 1 0 -0 0 1 2 2 0 -1 -3 -4 -4 -5 -6 -6 -6 -6 -7 -8 -8 -8 -8 -8 -8 -8 -7 -7 -7 -7 -5 -4 -3 -2 -1 -1 -2 -2 -2 -3 -3 -3 -3 -3 -3 -4 -4
3 2 1 0 0 -0 -0 1 2 2 1 -1 -3 -4 -5 -6 -6 -7 -7 -8 -8 -8 -8 -8 -8 -8 -8 -7 -6 -6 -5 -3 -2 -1 -0 0 0 0 0 -0 -1 -1 -2 -2 -3 -3 -3 -3 -3
2 1 1 0 -0 0 0 1 2 2 2 -0 -2 -4 -5 -6 -7 -7 -7 -8 -9 -9 -8 -8 -8 -8 -7 -6 -6 -5 -3 -1 0 1 1 1 1 1 1 1 -0 -1 -2 -2 -3 -3 -2 -2 -3